7 * 24
多渠道服务支持
STARLINK-32717 是 SpaceX Starlink 卫星互联网项目中的一个近地轨道卫星,属于其第二代卫星群的一部分。该卫星于2023年发射,旨在为全球用户提供高速、低延迟的宽带互联网服务。它运行在约550公里高度的轨道上,配备先进通信设备,支持Ka/Ku波段传输,并具备星间链路能力,以提升网络效率和覆盖范围。Starlink 项目致力于改善偏远地区网络接入,同时推动全球数字连接。
美国
(US)
| 数据来源 | 国际轨道数据 |
| 星历时间: | 2025-11-07T05:31:46+0800 20小时前 查看轨道信息 |
| 半长轴: | 6860.99km |
| 偏心率: | 0.0003381 |
| 轨道倾角: | 43.003° |
| 近地点辐角 | 291.747° |
| 升交点赤经 | 262.301° |
| 平近点角 | 68.302° |
| 近地点: | 480.535km |
| 远地点: | 485.175km |
| 周期: | 94.263分钟 |
| 每日圈数: | 15.276457 |